Back to catalog

USA 110

AliveMilitaryGEO
NORAD 23567·PAYLOAD·🇺🇸 United States

Launched May 14, 1995 from Cape Canaveral Space Force Station

Loading…

TLE

FreshSource: Mike McCants

Epoch: Sep 14, 2026, 16:33 UTC

1 23567U 95022A   26257.68989090  .00000000  00000-0  00000-0 0    05
2 23567  16.4199   7.0752 0031434 144.5537 215.6704  1.00270000 20669

Track USA 110 in real time with AllMySat

Download on the App Store